Lid_Strength_Index
-0 1 1 0 1 1 1 0 -0 0 0 0 0 0 0 0 1 0 1 1 1 1
0 0 1 0 0 0 0 0 -0 -0 0 0 0 0 0 1 1 1 1 1 1 1
0 0 0 0 1 0 0 0 0 0 0 1 0 0 0 1 1 1 1 1 1 1
0 0 0 0 0 1 0 0 1 0 1 1 1 1 1 1 1 1 1 1 1 1
0 0 1 1 0 0 1 0 1 1 1 1 1 1 1 1 1 1 2 1 1 1
1 0 1 1 0 0 1 1 1 1 1 1 1 1 1 1 1 1 1 1 1 1
1 1 1 0 0 1 0 1 1 1 1 1 1 1 1 1 1 1 1 1 1 1
1 1 1 1 1 1 1 1 1 1 1 1 1 1 1 1 1 1 1 1 1 0
1 1 1 1 1 1 1 1 1 1 1 1 1 6 7 2 1 1 1 2 1 1
1 1 1 1 1 1 1 1 1 1 1 1 1 10 9 7 1 1 1 1 1 1
1 2 2 1 2 2 1 2 2 2 1 1 1 10 10 8 1 1 1 1 1 1
3 3 2 2 2 2 2 2 2 1 1 2 2 11 10 5 1 2 1 1 0 1
4 3 2 2 2 2 2 2 2 2 1 3 1 13 11 4 1 2 2 1 1 9
3 2 2 2 2 2 2 2 2 2 2 1 2 5 10 11 1 2 2 2 2 1